Weather History for Daggett-Barstow, CA

Change the Weather History Date:

Thursday, April 18, 2013

  Actual Average Record
Temperature  
Mean Temperature 58 °F -  
Max Temperature 71 °F 75 °F 97 °F (1954)
Min Temperature 46 °F 51 °F 41 °F (1963)
Degree Days  
Heating Degree Days 6    
Growing Degree Days 8 (Base 50)    
Moisture  
Dew Point 6 °F    
Average Humidity 13    
Maximum Humidity 21    
Minimum Humidity 7    
Precipitation  
Precipitation 0.00 in - - ()
Sea Level Pressure  
Sea Level Pressure 30.20 in    
Wind  
Wind Speed 7 mph (NE)    
Max Wind Speed 13 mph    
Max Gust Speed 25 mph    
Visibility 10 miles    
Events      
Averages and records for this station are not official NWS values.
T = Trace of Precipitation, MM = Missing Value Source: NWS Daily Summary

Daily Weather History Graph

Daily Weather History Graph

Search for Another Location

Airport:

Trip Planner

Search our weather history database for the weather conditions in past years. The results will help you decide how hot, cold, wet, or windy it might be!

Date:

Astronomy

Apr. 18, 2013 Rise Set
Actual Time 6:11 AM PDT 7:22 PM PDT
Civil Twilight 5:44 AM PDT 7:48 PM PDT
Nautical Twilight 5:13 AM PDT 8:19 PM PDT
Astronomical Twilight 4:41 AM PDT 8:52 PM PDT
Moon 12:29 PM PDT (4/18) 1:36 AM PDT (4/18)
Length of Visible Light 14h 03m
Length of Day
13h 11m
First Quarter, 53% of the Moon is Illuminated
Apr 18
First Quarter
Apr 25
Full
May 2
Last Quarter
May 9
New
May 17
First Quarter

Hourly Weather History & Observations

Time (PDT) Temp. Dew Point Humidity Pressure Visibility Wind Dir Wind Speed Gust Speed Precip Events Conditions
12:50 AM 55.9 °F 8.1 °F 15% 30.17 in 10.0 mi North 11.5 mph - N/A   Clear
1:50 AM 55.0 °F 10.0 °F 17% 30.17 in 10.0 mi North 8.1 mph - N/A   Clear
2:50 AM 52.0 °F 10.0 °F 19% 30.19 in 10.0 mi South 11.5 mph - N/A   Clear
3:50 AM 51.1 °F 9.0 °F 18% 30.21 in 10.0 mi ENE 4.6 mph - N/A   Clear
4:50 AM 50.0 °F 8.1 °F 18% 30.22 in 10.0 mi SE 4.6 mph - N/A   Clear
5:50 AM 46.9 °F 7.0 °F 20% 30.24 in 10.0 mi SE 4.6 mph - N/A   Clear
6:50 AM 48.9 °F 7.0 °F 18% 30.26 in 10.0 mi SSE 3.5 mph - N/A   Clear
7:50 AM 53.1 °F 14.0 °F 21% 30.28 in 10.0 mi Calm Calm - N/A   Clear
9:50 AM 60.1 °F 9.0 °F 13% 30.27 in 10.0 mi East 5.8 mph - N/A   Clear
10:50 AM 63.0 °F 9.0 °F 12% 30.26 in 10.0 mi NE 8.1 mph - N/A   Clear
11:50 AM 66.0 °F 7.0 °F 10% 30.25 in 10.0 mi North 12.7 mph 18.4 mph N/A   Clear
12:50 PM 64.9 °F 5.0 °F 9% 30.23 in 10.0 mi Variable 4.6 mph 18.4 mph N/A   Clear
1:50 PM 68.0 °F 3.0 °F 8% 30.21 in 10.0 mi NNE 11.5 mph 25.3 mph N/A   Clear
2:50 PM 70.0 °F 3.9 °F 7% 30.19 in 10.0 mi Variable 3.5 mph - N/A   Clear
3:50 PM 71.1 °F 5.0 °F 8% 30.17 in 10.0 mi NNE 6.9 mph - N/A   Clear
4:50 PM 71.1 °F 3.0 °F 7% 30.16 in 10.0 mi NNE 9.2 mph 16.1 mph N/A   Clear
5:50 PM 71.1 °F 3.0 °F 7% 30.16 in 10.0 mi NE 5.8 mph - N/A   Clear
6:50 PM 69.1 °F 3.9 °F 8% 30.16 in 10.0 mi NNE 5.8 mph - N/A   Clear
7:50 PM 64.9 °F 6.1 °F 10% 30.16 in 10.0 mi Calm Calm - N/A   Clear
8:50 PM 61.0 °F 1.0 °F 9% 30.17 in 10.0 mi South 3.5 mph - N/A   Clear
9:50 PM 54.0 °F 5.0 °F 14% 30.19 in 10.0 mi Calm Calm - N/A   Clear
10:50 PM 53.1 °F 7.0 °F 16% 30.19 in 10.0 mi West 5.8 mph - N/A   Clear
11:50 PM 52.0 °F 1.0 °F 12% 30.18 in 10.0 mi West 5.8 mph - N/A   Clear